Volver al catálogo

STARLINK-5099

ActivoComunicacionesVLEO
NORAD 54009·PAYLOAD·🇺🇸 United States

Lanzado Oct 5, 2022 desde Vandenberg Space Force Base

Loading…

Próximos Pases (próximas 24 horas)

TLE

ActualizadoSource: CelesTrak SupGP

Época: Sep 14, 2026, 21:23 UTC

1 54009C 22125AX  26257.89145833  .00035734  00000+0  10553-2 0  2577
2 54009  53.1595  78.0788 0001200  78.7302 221.8910 15.34386569    10

Sigue STARLINK-5099 en tiempo real con AllMySat

Download on the App Store